EHI
0 0 0 0 0 0 0 0 0 1 3 5 8 13 20 29 42 57 65 65 68 73 74 74 72 68 60 52 42 34 29 28 27 26 25 23 21 19 19 21 20 16 12 10
0 0 0 0 0 0 0 0 0 1 4 8 11 16 22 32 45 57 65 68 70 72 72 72 71 67 60 52 43 35 30 28 28 27 26 23 21 20 19 20 18 14 11 9
0 0 0 0 0 0 0 1 1 4 7 11 15 18 22 32 44 54 65 72 73 72 72 71 69 65 58 50 42 37 32 29 27 26 24 21 19 18 17 14 13 11 10 9
0 0 0 0 1 1 3 7 9 11 13 13 15 19 23 30 41 53 66 74 74 73 72 72 69 62 53 45 38 34 29 24 24 24 21 18 17 16 13 9 8 8 9 9
0 0 0 2 4 4 7 15 20 21 20 18 17 19 26 35 45 58 69 73 74 72 71 72 69 60 49 39 32 27 23 21 21 21 19 16 15 14 11 8 7 7 8 9
0 0 1 4 7 7 10 19 28 31 31 31 29 29 36 45 53 63 71 73 72 72 72 73 70 61 49 38 30 25 23 23 22 20 17 15 14 12 10 9 8 7 7 8
0 1 3 7 9 12 18 28 36 40 43 45 46 46 48 53 57 64 71 74 72 72 73 73 70 62 52 42 33 27 24 23 21 17 13 12 11 11 11 10 9 8 8 6
1 4 9 15 17 21 31 39 43 45 47 51 54 55 56 57 59 64 71 74 72 71 71 68 64 58 51 44 36 28 24 22 20 14 9 7 8 10 11 10 8 8 7 5
6 10 16 20 22 26 31 38 42 43 44 47 51 53 54 57 60 64 68 70 68 67 64 61 56 51 46 41 35 29 26 23 20 15 10 8 7 8 9 8 7 6 5 4
9 12 16 20 21 22 25 29 34 36 37 40 43 45 47 53 59 62 64 63 61 58 55 52 46 40 38 35 31 29 27 24 20 16 11 10 8 6 6 6 6 4 3 1
11 11 13 16 18 20 23 26 28 28 31 33 35 37 39 44 50 53 55 54 51 48 47 44 37 31 29 29 27 26 25 22 17 13 10 8 6 4 3 3 3 3 2 1
15 14 12 13 15 17 21 24 24 23 25 26 28 30 30 32 35 38 41 41 39 38 38 35 30 25 24 23 22 22 21 18 13 10 8 6 4 3 2 1 1 1 1 0
14 12 10 11 14 15 18 20 20 19 18 17 19 22 22 23 26 28 29 29 29 29 28 26 22 20 20 19 18 18 17 13 9 7 6 5 4 3 3 2 1 0 0 0
6 5 6 10 13 14 14 14 15 15 14 12 13 15 16 18 21 22 21 22 22 21 19 17 15 15 15 14 14 15 12 7 4 3 3 2 3 3 3 3 2 0 0 0
2 3 4 7 10 10 10 11 12 11 11 10 10 10 11 12 15 16 15 15 16 15 14 13 12 11 10 9 9 9 6 3 1 1 1 1 1 1 1 2 1 0 0 0
2 2 3 5 6 7 7 9 9 8 7 7 7 8 9 11 11 11 11 12 13 13 13 12 10 7 5 5 5 4 3 2 2 2 1 0 0 0 0 0 0 0 0 0
1 1 2 3 4 4 5 6 6 5 5 5 5 7 9 10 9 8 8 9 11 12 11 10 7 5 3 3 3 3 3 2 1 1 1 0 0 0 0 0 0 0 0 0
0 0 0 1 1 2 3 4 4 4 4 5 5 6 8 8 8 7 7 7 8 9 8 7 6 4 3 3 3 3 2 1 0 0 0 0 0 0 0 0 0 0 0 0
0 0 0 0 0 1 2 3 3 4 5 5 5 5 7 8 8 7 6 6 6 6 6 5 4 3 3 3 3 2 1 1 0 0 0 0 0 0 0 0 0 0 0 0
1 1 0 0 0 0 1 2 3 3 4 3 3 4 6 7 7 6 5 6 6 5 5 3 2 2 2 2 1 1 0 0 0 0 0 0 0 0 0 0 0 0 0 0
1 1 0 0 0 0 0 1 2 3 3 2 1 2 4 5 3 2 3 4 4 3 2 1 0 1 1 1 0 0 0 0 0 0 0 0 0 0 0 0 0 0 0 0
2 1 0 0 0 0 1 1 2 3 4 2 1 0 2 2 1 1 2 3 3 1 0 0 0 0 0 0 0 0 0 0 0 0 0 0 0 0 0 0 0 0 0 0
2 1 1 1 1 1 1 1 1 3 4 4 2 2 3 3 3 2 2 2 2 1 0 0 0 0 0 0 0 0 0 0 0 0 0 0 0 0 0 0 0 0 0 0
1 1 1 2 2 2 1 1 1 3 5 5 4 3 4 5 5 3 1 1 1 0 0 0 0 0 0 0 0 0 0 0 0 0 0 0 0 0 0 0 0 0 0 0
0 0 1 2 2 1 1 3 3 4 6 5 3 2 3 4 4 2 1 0 0 0 0 0 0 0 0 0 0 0 0 0 0 0 0 0 0 0 0 0 0 0 0 0
0 0 0 1 1 1 2 4 4 4 5 5 3 2 2 3 3 3 2 1 0 0 0 0 0 0 0 0 0 0 0 0 0 0 0 0 0 0 0 0 0 0 0 0
0 0 0 0 0 0 1 2 4 4 4 4 4 3 3 3 3 3 2 1 0 0 0 0 0 0 0 0 0 0 0 0 0 0 0 0 0 0 0 0 0 0 0 0
Wind_Speed
16 15 13 12 15 16 15 13 11 8 6 4 4 6 6 7 8 10 10 10 9 8 7 6 6 6 6 6 6 6 5 5 4 3 3 2 2 2 2 2 2 2 2 2
15 17 16 13 12 14 15 14 13 11 6 2 2 5 6 7 8 9 10 10 9 9 9 7 7 7 6 6 6 6 5 5 4 4 3 3 3 3 3 3 3 3 2 2
12 15 16 16 13 11 10 10 11 10 4 3 3 4 3 5 7 8 9 9 9 9 8 7 7 6 7 7 6 6 5 5 5 4 4 4 3 4 4 3 3 3 3 3
11 12 16 12 12 12 10 8 7 4 3 2 4 5 3 3 5 6 8 9 9 9 9 8 8 7 7 7 7 6 6 5 5 5 4 4 4 4 4 3 3 3 3 3
10 13 14 10 7 9 8 4 2 1 0 1 2 4 3 3 4 5 6 8 9 10 10 9 9 8 7 7 7 6 5 5 5 5 4 4 4 4 4 3 3 3 3 3
10 12 10 6 6 6 6 4 3 4 3 3 2 1 3 5 5 6 6 8 9 10 10 9 9 9 8 7 6 5 5 5 5 4 4 4 4 4 3 3 3 3 3 3
13 13 7 5 6 6 6 1 5 5 6 5 5 5 4 5 5 6 7 8 9 9 9 9 8 7 7 6 6 5 5 5 5 4 4 4 4 3 3 3 3 3 3 3
12 13 7 8 5 4 5 6 7 7 6 6 7 7 6 5 6 6 7 8 8 8 8 7 7 7 6 5 5 5 5 5 5 4 3 4 3 3 3 3 3 3 2 3
5 3 4 6 7 7 5 6 6 6 6 6 6 6 6 5 5 6 7 7 7 8 9 7 6 6 6 5 5 5 5 5 4 4 3 3 3 3 2 1 1 2 2 2
1 4 5 6 7 7 7 7 6 6 5 5 5 5 5 5 5 5 6 7 6 7 7 7 5 5 6 6 6 6 5 4 4 4 3 3 2 2 1 1 1 1 1 2
3 1 3 6 6 7 7 6 6 5 5 6 5 5 5 5 5 5 6 5 6 6 6 6 6 6 6 6 6 5 5 4 4 3 4 4 4 4 3 4 3 1 1 1
1 3 3 4 6 6 6 5 5 4 5 5 4 4 4 4 5 5 5 6 6 6 6 6 6 6 5 5 5 5 4 3 3 3 3 3 4 5 10 7 7 7 6 4
3 4 4 4 4 4 4 4 4 3 3 3 3 3 3 4 4 5 5 6 6 6 6 6 6 6 5 4 3 3 3 3 2 3 3 3 3 3 3 4 7 8 7 7
3 3 4 4 5 4 3 3 2 1 2 2 2 3 3 4 4 5 4 5 6 6 6 6 6 6 4 4 3 2 2 3 3 2 3 2 2 2 3 3 3 3 5 6
3 4 4 3 4 4 3 3 2 1 1 2 3 3 3 4 4 4 5 6 6 6 6 5 5 5 4 4 3 3 2 2 2 2 2 3 2 2 2 3 3 3 3 3
4 4 4 4 4 4 3 3 3 2 1 3 3 3 4 4 4 5 5 5 6 6 5 5 5 5 4 4 3 3 3 4 2 2 2 2 2 2 3 3 4 3 3 3
5 5 5 5 5 4 3 3 3 2 1 2 3 3 4 5 5 5 5 5 6 6 5 5 5 4 4 4 3 3 3 4 3 2 2 2 2 2 3 3 3 3 3 3
6 7 6 5 5 5 4 3 3 2 2 3 3 3 3 4 5 5 5 6 7 7 6 5 4 4 4 3 2 3 3 3 2 2 3 2 2 2 3 3 3 3 3 4
7 7 6 5 5 5 4 4 2 1 2 3 3 4 4 5 6 6 6 6 6 6 5 5 4 4 4 4 2 2 3 4 3 3 3 4 3 2 3 3 3 3 3 3
5 5 4 4 4 4 4 3 2 2 2 3 3 4 5 6 6 6 6 5 4 4 5 5 4 4 4 4 1 2 3 4 4 3 3 3 3 3 3 3 3 3 3 3
3 3 3 3 3 2 2 1 2 3 4 4 4 5 6 6 6 6 6 4 4 4 4 4 3 3 3 2 1 2 3 3 4 3 3 3 3 2 3 3 3 3 3 3
4 3 2 1 0 1 2 2 3 4 4 5 5 6 7 7 6 5 4 4 5 4 3 3 3 3 3 1 2 3 4 4 3 3 3 2 2 2 2 2 2 2 2 2
3 2 1 1 1 2 3 3 4 4 5 5 6 6 6 5 5 5 4 4 5 3 2 3 4 5 2 1 2 3 3 3 3 2 2 2 2 3 3 3 2 2 2 2
1 1 1 2 3 4 4 4 5 4 6 6 6 6 5 5 4 4 5 5 5 4 3 5 6 4 1 2 2 2 2 2 2 2 2 2 2 2 2 2 2 2 2 3
1 2 3 3 3 4 4 5 5 5 5 4 5 5 4 4 4 4 5 7 7 5 5 5 4 3 2 1 2 2 2 1 1 1 1 1 1 1 1 2 2 2 2 2
2 2 3 3 3 3 3 4 4 4 4 4 4 4 5 5 6 5 5 6 7 4 4 4 4 3 2 1 1 2 2 3 2 1 1 0 0 0 0 1 1 1 1 1
4 4 3 4 4 3 3 4 4 4 4 4 4 4 5 5 5 5 5 5 4 3 3 3 3 3 2 1 1 1 1 1 0 0 0 0 0 1 0 0 1 1 0 0
Wind_Direction
261 267 260 233 221 226 232 244 256 261 250 201 177 145 147 154 150 145 148 149 147 143 139 137 137 141 144 138 134 132 135 141 142 144 136 138 134 130 131 128 118 94 84 70
249 258 260 255 238 225 224 231 245 255 257 182 146 133 145 147 154 154 155 157 154 153 149 148 149 150 144 137 136 135 138 133 131 130 129 126 122 119 106 95 89 87 83 79
254 245 250 250 248 244 239 235 239 246 237 193 158 120 141 151 162 159 158 160 161 158 154 151 150 145 143 140 136 136 130 126 127 125 119 114 118 109 101 90 81 76 78 80
256 257 246 244 247 246 240 247 244 228 211 194 141 130 127 139 149 153 158 159 157 153 149 146 142 137 135 137 135 133 130 131 127 123 122 118 110 101 95 89 85 80 74 76
250 248 247 246 240 243 233 237 293 295 28 8 135 131 99 81 107 131 147 142 144 148 147 145 142 141 141 140 139 141 138 131 127 129 127 119 110 104 102 101 98 92 89 86
253 255 248 266 288 285 248 201 23 26 30 20 35 185 70 61 88 102 109 126 137 140 139 138 138 140 144 145 144 144 136 126 123 125 123 120 119 116 118 120 116 110 98 93
248 256 254 320 324 288 245 94 30 38 37 38 49 51 62 71 88 100 106 119 127 131 132 131 132 137 144 141 141 135 127 125 122 120 119 123 123 127 133 129 124 124 114 106
237 248 252 354 355 18 36 40 42 43 45 54 67 67 63 66 92 101 108 116 124 123 121 123 131 137 136 128 123 122 125 126 126 128 132 125 123 130 136 143 143 135 127 116
235 227 88 50 60 52 39 42 33 31 41 57 66 66 70 67 90 105 109 112 115 121 120 119 126 131 132 124 123 123 121 117 116 118 106 113 127 132 141 164 163 154 152 138
260 110 89 69 62 47 40 39 30 29 31 54 69 70 74 77 78 92 108 115 115 119 127 125 124 123 123 122 120 123 127 125 122 117 113 102 89 84 90 53 74 95 88 102
217 115 74 59 38 31 30 29 24 21 34 52 70 77 75 80 83 84 94 103 112 116 118 122 116 109 110 116 125 131 133 132 133 130 120 98 71 40 48 54 39 40 54 66
328 26 20 29 21 23 22 16 14 22 40 52 63 78 81 90 92 90 96 102 106 110 111 113 113 111 112 117 129 134 136 136 136 129 124 121 111 79 48 57 62 61 62 78
4 1 356 343 351 5 8 359 2 19 43 64 75 93 98 102 99 98 100 108 116 119 116 113 109 106 104 112 121 127 136 140 138 131 135 141 138 135 117 73 64 60 61 68
352 343 328 337 332 336 339 332 339 16 60 88 101 109 106 108 107 108 107 113 115 117 116 117 117 112 107 111 115 121 131 123 126 131 137 134 137 150 146 141 119 78 59 65
305 304 295 300 298 301 301 301 288 246 152 118 117 116 115 116 116 115 115 118 119 118 116 120 120 115 112 114 119 131 131 122 121 125 129 128 138 142 132 128 121 115 110 82
297 298 294 277 275 279 286 284 271 255 197 139 125 114 111 115 117 119 119 125 129 126 124 126 120 117 119 124 129 130 111 104 102 124 132 139 145 142 133 128 122 122 127 126
279 277 280 272 272 278 281 279 266 245 185 145 127 120 128 128 130 130 129 128 124 118 117 116 114 118 121 122 126 121 114 114 112 119 121 124 124 122 118 120 123 124 121 125
269 268 268 261 260 268 274 281 271 239 148 123 123 132 140 138 142 140 133 126 119 110 105 105 106 117 113 104 104 115 116 122 129 119 107 99 103 112 117 118 122 123 125 136
268 261 256 252 249 249 250 253 250 98 100 121 138 140 135 127 126 126 123 122 122 118 109 105 114 123 112 98 83 109 116 119 113 105 109 110 116 115 117 122 129 137 137 144
278 272 260 250 251 242 237 224 181 145 138 136 137 135 127 120 120 118 113 109 107 108 116 117 128 120 116 107 88 128 127 128 127 127 126 132 138 134 133 138 140 142 147 155
306 282 262 242 231 216 200 198 151 143 136 133 131 124 121 120 122 124 126 120 105 101 117 128 127 117 114 117 209 146 133 129 132 133 137 137 139 141 141 146 147 152 157 159
327 315 295 293 269 132 113 110 121 125 125 125 124 123 124 125 123 116 109 108 115 113 131 131 120 102 96 150 166 138 134 136 136 137 138 141 148 149 151 153 155 159 162 165
328 325 328 115 124 117 99 105 117 122 127 128 129 132 132 129 131 132 125 114 120 126 137 120 110 106 94 187 147 134 135 136 138 144 152 166 173 164 160 163 164 167 169 182
22 71 109 119 126 128 118 115 114 113 114 112 115 120 126 123 115 111 114 119 117 131 117 113 125 128 187 205 163 140 134 140 157 171 171 168 157 151 155 159 165 166 175 191
84 102 114 123 122 120 120 122 118 116 115 117 120 122 125 123 123 121 119 122 126 133 126 134 152 170 212 195 136 135 144 123 104 80 120 138 153 158 166 177 180 191 198 202
104 103 99 99 105 112 118 116 117 123 123 119 116 122 120 117 119 119 122 127 128 136 134 144 157 180 206 214 153 138 125 127 154 188 189 185 223 195 216 273 246 236 205 191
100 100 107 107 108 116 118 118 116 112 113 115 112 112 113 116 119 123 127 133 140 147 140 146 155 167 181 186 132 115 108 117 152 255 69 41 315 314 292 244 279 319 339 37